This is the latest recevied weather packets stored in our database for station/object LU8FJH-13. If no packets are shown the sender has not sent any weather packets the latest 10 day(s).
| Time | Temp. | Humidity | Pressure | Rain* | Wind** | Luminosity | Snow |
|---|---|---|---|---|---|---|---|
| 1777418741 | 17.78° C | 51% | 1012.2 hPa | 0 mm | - | - | - |
| 1777418201 | 17.78° C | 54% | 1012.3 hPa | 0 mm | - | - | - |
| 1777417661 | 17.78° C | 57% | 1012.1 hPa | 0 mm | - | - | - |
| 1777417120 | 17.78° C | 59% | 1012.3 hPa | 0 mm | - | - | - |
| 1777416580 | 17.78° C | 59% | 1012.5 hPa | 0 mm | - | - | - |
| 1777416040 | 17.78° C | 59% | 1012.3 hPa | 0 mm | - | - | - |
| 1777415500 | 18.33° C | 58% | 1012.3 hPa | 0 mm | - | - | - |
| 1777414960 | 18.33° C | 57% | 1012.3 hPa | 0 mm | - | - | - |
| 1777414421 | 18.89° C | 56% | 1012.2 hPa | 0 mm | - | - | - |
| 1777413881 | 18.89° C | 54% | 1012.3 hPa | 0 mm | - | - | - |
| 1777413340 | 19.44° C | 53% | 1012.5 hPa | 0 mm | - | - | - |
| 1777412801 | 19.44° C | 53% | 1012.3 hPa | 0 mm | - | - | - |
| 1777412260 | 19.44° C | 52% | 1012.2 hPa | 0 mm | - | - | - |
| 1777411721 | 20° C | 51% | 1012.2 hPa | 0 mm | - | - | - |
| 1777411181 | 20.56° C | 50% | 1012.2 hPa | 0 mm | - | - | - |
| 1777410640 | 21.11° C | 48% | 1012.1 hPa | 0 mm | - | - | - |
| 1777410100 | 21.67° C | 40% | 1012.3 hPa | 0 mm | - | - | - |
| 1777409560 | 21.67° C | 39% | 1012.4 hPa | 0 mm | - | - | - |
| 1777409021 | 22.22° C | 36% | 1012.4 hPa | 0 mm | - | - | - |
| 1777408480 | 22.22° C | 35% | 1012.2 hPa | 0 mm | - | - | - |
| 1777407940 | 22.22° C | 35% | 1012.2 hPa | 0 mm | - | - | - |
| 1777407400 | 22.78° C | 35% | 1012 hPa | 0 mm | - | - | - |
| 1777406860 | 22.78° C | 35% | 1012.1 hPa | 0 mm | - | - | - |
| 1777406320 | 23.89° C | 34% | 1012.3 hPa | 0 mm | - | - | - |
| 1777405780 | 25° C | 33% | 1012.4 hPa | 0 mm | - | - | - |
* Rain latest hour (hover to see other rain measurements)
** Current wind speed in m/s (hover to see current wind gust speed)